User: anonymous
Location: Vancouver
(49.2500°N, 123.1330°W)
Time: 20:56:45
(UTC-07:00)
Language:

Iridium 21 - Orbit

View from above orbital plane
View from above orbital plane
View from above satellite
View from above satellite

Ground track
Ground track

The orbit data is extracted from the following two-line orbital elements,

1 25778U 99032B   14233.29712172  .00000195  00000-0  62640-4 0  8464
2 25778 086.3956 294.8698 0002248 116.0923 287.4368 14.34215718800352
Epoch (UTC): 21 August 2014 07:07:51
Eccentricity: 0.0002248
inclination: 86.3956°
perigee height: 776 km
apogee height: 779 km
right ascension of ascending node: 294.8698°
argument of perigee: 116.0923°
revolutions per day: 14.34215718
mean anomaly at epoch: 287.4368°
orbit number at epoch: 80035

The dashed part of the orbit path shows where the satellite is in the earth's shadow,  

DLR